EHI
0 0 0 0 0 0 0 0 0 0 0 0 2 4 5 3 2 2 2 6 11 17 22 30 41 46 47 47 47 47 47 43 36 31 29 27 25 25 25 25 23 19 15 13 11 9 7 7 7
0 0 0 0 0 0 0 0 0 0 0 1 3 6 6 5 5 4 4 8 13 17 22 30 40 45 45 45 46 45 43 39 32 28 27 25 24 23 23 23 22 19 16 12 10 7 6 7 8
0 0 0 0 0 0 0 0 0 1 1 3 4 5 6 5 6 8 9 12 15 16 18 28 39 43 42 43 43 40 37 33 27 23 23 22 20 19 19 19 18 16 14 10 8 7 6 7 9
0 0 0 0 0 0 0 0 1 2 3 4 4 4 5 5 8 13 17 16 16 14 14 23 37 42 41 42 40 35 31 29 25 22 22 20 18 19 19 18 15 12 9 8 6 6 7 7 9
0 0 0 0 0 0 0 1 2 3 4 5 5 5 6 7 11 19 21 17 14 13 12 19 31 38 39 41 40 34 29 27 26 24 23 20 19 22 23 20 15 11 8 7 6 6 6 7 8
0 0 0 0 0 0 1 2 3 4 5 6 7 7 7 8 13 19 21 16 12 12 12 16 25 31 33 38 40 36 31 30 28 26 25 23 22 23 23 20 16 12 9 7 6 5 5 6 7
0 0 0 0 0 1 2 3 3 4 5 6 7 8 8 9 13 19 21 17 13 11 11 14 20 23 25 29 34 35 32 31 29 26 26 25 23 20 18 17 14 11 9 9 8 7 6 6 6
0 0 0 0 0 1 2 3 3 4 5 5 7 8 9 11 15 19 21 18 13 9 9 11 14 15 17 19 24 27 27 26 25 23 22 22 21 18 16 14 12 10 9 10 9 8 6 5 6
0 0 0 0 0 0 1 1 3 5 6 7 8 9 11 12 15 18 20 17 11 7 7 7 8 10 12 13 14 17 17 17 18 17 17 18 18 17 14 11 10 10 9 8 7 6 4 4 6
0 0 0 0 0 0 0 1 2 4 6 8 10 11 12 12 13 17 19 16 11 7 6 5 5 7 8 8 8 9 8 8 10 11 12 14 15 14 12 9 8 8 6 5 5 3 2 3 4
0 0 0 0 0 0 1 3 3 3 4 7 10 11 10 10 11 14 15 14 10 7 5 4 3 4 5 5 6 7 7 6 7 9 10 11 10 10 9 7 6 5 4 4 4 3 3 3 3
0 0 0 1 1 1 2 3 2 1 2 5 8 9 8 8 10 11 11 9 7 5 5 4 4 3 3 3 5 6 8 9 8 8 9 10 9 8 9 8 6 5 5 4 3 3 3 3 3
0 0 1 2 2 3 3 2 1 0 1 3 6 7 7 9 11 10 7 6 5 5 6 6 6 4 2 2 3 4 6 8 8 7 8 9 10 10 10 10 8 6 5 5 4 3 3 3 2
0 0 1 2 3 4 4 3 1 1 2 3 5 7 10 12 12 9 6 5 6 7 7 7 6 4 2 2 1 2 4 7 8 7 6 8 11 11 10 9 8 6 5 5 4 3 2 1 1
0 0 1 2 3 4 5 4 2 1 2 4 5 9 12 14 12 8 6 6 7 7 8 7 4 2 2 3 2 3 5 7 7 7 6 6 9 11 10 9 7 6 6 6 4 3 2 1 0
0 0 0 1 2 4 4 3 2 2 3 4 6 10 13 12 9 8 7 7 7 7 7 6 3 1 1 3 4 4 6 7 6 6 6 6 7 8 9 8 7 6 7 6 4 3 2 1 0
0 0 0 0 1 3 4 4 3 3 4 5 8 12 13 10 8 7 7 7 7 7 8 6 3 1 1 3 4 5 5 4 5 6 6 6 6 6 6 7 6 6 6 5 3 2 1 0 0
0 0 0 0 1 3 3 4 4 6 7 7 8 10 10 8 8 8 8 8 8 9 10 9 6 4 4 4 5 5 4 3 3 5 6 6 6 6 6 6 5 6 6 4 2 0 0 0 0
0 0 0 1 2 3 3 3 4 5 6 5 6 6 7 8 9 10 10 9 9 10 12 12 11 8 7 7 5 4 4 4 3 4 5 6 6 6 7 6 6 6 6 3 1 0 0 0 0
0 0 0 1 3 3 3 3 3 3 2 2 3 5 6 8 10 10 9 9 9 9 10 12 13 11 9 8 5 4 5 5 5 5 5 5 6 7 6 6 5 6 5 3 1 0 0 0 0
0 0 1 2 3 2 1 1 2 2 1 2 3 5 7 8 8 8 8 8 8 7 7 9 12 12 10 7 5 4 4 4 4 5 4 4 5 6 5 5 4 4 4 3 2 1 0 0 0
0 0 1 2 2 1 0 0 1 2 3 3 3 4 5 6 6 7 8 8 8 7 6 7 9 10 10 8 6 5 4 3 3 3 2 2 3 4 4 4 3 3 3 3 3 2 1 0 0
0 0 0 1 1 0 0 0 0 1 2 2 2 3 4 4 5 6 7 7 7 7 5 6 8 9 9 8 6 5 4 3 3 1 0 1 1 2 3 3 3 3 3 3 3 3 2 1 0
0 0 0 0 0 0 0 0 0 0 1 1 2 4 3 3 4 6 6 6 6 5 4 5 6 7 7 6 5 4 3 3 2 1 0 0 0 1 2 3 3 3 3 3 3 3 3 2 1
0 0 0 0 0 0 0 0 0 1 1 1 2 3 3 3 5 6 6 7 6 5 4 5 5 5 5 5 3 3 3 3 2 1 0 0 0 0 1 2 3 3 3 3 3 3 3 2 1
0 0 0 0 0 0 0 0 0 1 2 1 2 3 3 3 4 5 7 8 7 6 6 6 5 4 4 3 2 2 2 2 1 0 0 0 0 0 0 1 2 3 3 3 3 3 3 2 1
0 0 0 0 0 0 0 0 0 1 2 1 2 3 3 3 3 5 8 8 7 6 6 6 5 3 2 2 2 1 1 1 0 0 0 0 0 0 0 0 1 2 3 3 3 3 3 1 0
0 0 0 0 0 0 0 0 0 0 1 1 2 3 4 4 5 7 8 7 5 5 5 5 3 2 1 1 1 0 0 0 0 0 0 0 0 0 0 0 0 1 2 2 2 2 2 1 0
0 0 0 0 0 0 0 0 0 0 0 0 1 4 5 5 6 7 7 4 3 3 4 3 2 1 0 0 0 0 0 0 0 0 0 0 0 0 0 0 0 0 1 1 1 1 1 0 0
0 0 0 0 0 0 0 0 0 0 0 0 1 3 4 4 5 6 5 2 1 2 3 2 2 1 0 0 0 0 0 0 0 0 0 0 0 0 0 0 0 0 0 0 0 0 0 0 0
Wind_Speed
3 2 1 2 5 4 2 4 2 2 4 4 6 8 8 5 4 4 2 8 12 10 8 9 10 12 12 12 12 12 12 11 11 11 11 11 11 11 11 11 11 10 10 10 10 10 10 9 9
1 2 2 4 5 2 4 3 1 0 3 5 7 8 7 6 7 7 5 8 11 10 7 9 10 12 12 12 11 11 12 11 11 11 11 11 10 10 10 10 10 10 9 9 9 9 9 8 8
2 1 3 4 2 3 4 3 1 1 3 4 5 5 5 4 6 5 7 11 10 8 6 9 12 12 12 12 11 11 11 11 11 10 10 10 10 9 9 9 9 9 8 8 8 8 8 7 7
2 3 4 3 2 4 4 3 1 2 4 5 6 5 4 4 4 8 12 12 11 8 6 8 11 12 12 12 11 11 11 11 10 10 9 9 8 8 8 8 8 8 8 8 8 7 7 7 6
3 4 3 2 4 3 2 1 2 3 3 5 7 5 4 5 10 13 12 11 10 7 5 6 10 11 12 11 11 11 10 10 9 9 9 8 8 7 7 7 6 6 7 7 7 7 7 7 7
3 4 3 2 4 2 1 0 3 6 6 5 7 6 3 4 8 9 10 9 9 9 6 5 9 10 10 10 10 9 9 9 8 8 8 8 8 7 7 7 6 6 6 6 7 6 6 6 6
3 3 2 3 2 2 1 0 4 6 5 3 4 6 3 4 5 7 8 8 8 8 7 4 4 6 9 9 9 9 8 8 8 8 7 7 7 8 8 7 7 6 6 6 6 6 7 7 7
4 3 1 2 2 2 1 1 3 6 4 3 4 6 3 4 6 7 8 8 7 6 5 4 4 4 4 5 8 8 8 8 8 8 8 7 7 7 8 7 7 6 6 6 6 6 6 7 7
3 3 2 3 3 3 2 2 2 5 6 5 4 5 5 8 9 9 8 6 5 4 3 3 4 3 3 3 5 6 7 7 7 6 7 6 3 3 4 6 7 7 7 7 6 6 6 6 7
4 3 7 5 3 2 0 3 2 5 6 5 6 6 7 8 9 9 8 6 5 4 3 3 4 3 3 3 3 2 3 3 3 3 3 3 2 2 4 5 7 7 7 7 7 6 6 5 2
4 6 5 3 3 2 2 2 3 6 3 3 6 6 7 8 8 8 7 6 5 4 3 2 4 3 3 3 3 1 1 2 2 3 3 2 2 2 2 1 2 3 4 3 3 3 2 2 2
2 6 4 4 3 1 2 3 4 4 4 6 8 9 8 7 7 8 8 6 5 4 3 3 4 4 3 2 2 3 2 2 2 3 4 3 2 2 2 2 1 1 1 2 2 2 2 3 4
3 4 2 2 2 3 3 4 5 4 6 8 8 8 9 8 6 5 6 5 5 4 3 3 4 5 3 2 1 2 2 2 3 2 2 3 3 2 2 2 1 1 1 1 2 2 2 3 3
3 2 2 2 2 2 4 2 4 3 7 8 8 6 7 7 6 6 5 4 4 4 3 3 4 4 4 2 2 2 2 2 2 2 2 2 2 2 2 2 1 1 1 2 2 2 2 2 2
2 4 5 3 1 2 5 2 2 6 7 8 7 7 6 5 5 6 5 5 5 4 3 3 4 4 3 2 2 2 1 1 1 1 2 2 2 2 2 2 1 1 1 2 1 1 1 1 2
4 3 3 6 1 1 6 3 4 5 8 8 7 7 6 4 5 5 5 4 4 4 4 3 3 3 2 2 1 1 1 2 1 1 1 1 1 2 2 1 1 1 1 1 1 1 1 1 1
3 2 4 5 2 1 4 4 4 5 8 7 7 7 7 5 4 4 4 5 5 4 3 3 2 3 2 2 2 1 1 1 1 1 1 1 1 1 1 1 1 1 1 1 1 1 1 1 2
5 4 4 4 3 2 2 3 4 5 7 7 6 6 7 6 5 5 4 4 5 4 4 3 2 2 2 1 1 1 1 0 0 0 1 1 1 2 1 1 2 1 1 1 1 1 1 2 2
5 4 4 5 3 2 3 3 5 5 5 6 5 6 7 6 5 5 5 5 4 3 3 3 3 2 2 2 1 1 1 1 0 1 1 1 2 2 2 2 1 1 1 2 2 1 1 1 1
4 3 4 3 2 2 2 3 4 5 6 7 8 7 6 5 4 4 4 4 4 3 3 2 3 3 2 2 2 2 1 1 1 1 1 1 2 2 3 2 2 2 1 1 1 1 1 1 0
5 4 5 4 1 1 2 2 2 2 2 4 5 6 6 7 6 5 4 3 3 2 2 3 3 3 2 2 1 1 1 1 0 1 1 1 2 2 2 3 2 2 2 2 2 2 2 1 1
5 6 5 4 2 2 2 1 4 2 2 4 5 6 6 5 5 4 4 3 3 2 2 2 2 2 2 2 2 3 2 1 2 2 2 2 2 2 2 2 2 2 2 2 2 2 2 2 1
6 5 4 3 2 1 1 3 4 0 2 5 6 7 6 6 6 5 4 4 3 3 2 2 2 1 1 1 2 2 1 1 1 1 2 2 1 2 2 2 2 2 2 2 2 2 2 2 2
3 3 4 4 4 1 4 3 4 4 6 6 6 7 6 5 6 4 4 3 2 2 2 2 2 1 1 1 1 1 1 1 1 1 1 1 1 1 1 1 2 2 2 2 3 3 3 3 3
3 6 4 5 4 4 3 2 5 5 4 6 8 7 5 5 5 5 4 3 2 2 2 2 2 1 1 1 1 1 1 2 2 2 1 1 0 1 1 1 1 1 2 2 2 2 3 3 3
2 7 6 3 3 4 3 1 4 3 3 5 7 7 5 5 5 5 4 3 3 3 2 2 2 1 1 1 0 0 1 1 1 1 1 1 1 1 1 1 1 1 1 1 1 1 2 2 3
2 2 7 6 1 0 2 1 3 0 3 5 6 6 5 5 5 5 4 3 3 3 2 2 2 1 1 1 1 0 0 0 0 0 0 1 1 1 0 0 0 1 1 1 1 1 2 2 2
5 5 5 5 3 2 2 3 4 5 5 5 6 6 4 4 4 4 4 3 3 3 2 2 2 2 2 1 1 1 0 0 1 1 1 0 0 1 1 1 0 0 1 1 1 1 2 1 2
1 2 4 4 5 5 3 5 5 8 7 7 6 6 6 5 4 4 3 3 3 2 2 2 2 2 1 1 1 0 0 0 1 1 1 1 1 1 1 0 0 0 1 1 1 1 2 2 2
5 5 6 5 3 4 4 5 3 6 7 7 6 6 5 5 4 4 4 3 2 2 2 2 1 1 1 1 1 1 0 1 1 1 1 1 1 0 0 0 0 1 1 1 1 2 2 2 3
Wind_Direction
219 213 131 62 58 48 277 260 249 346 11 46 70 81 83 66 101 133 149 136 131 135 139 137 135 134 130 127 124 123 122 121 119 118 118 117 118 121 125 128 130 133 136 139 138 138 140 141 140
203 181 63 58 79 54 276 251 309 8 115 93 70 76 76 72 83 106 116 138 134 137 138 135 136 135 132 130 128 128 128 127 126 125 125 124 125 127 131 134 137 139 142 145 145 146 146 148 149
224 132 83 74 105 185 246 266 192 92 77 82 74 52 65 84 102 123 141 140 131 132 135 139 137 138 136 135 134 134 133 134 134 134 133 134 136 136 137 142 146 148 149 152 153 154 156 155 158
101 57 56 70 255 243 227 261 332 46 56 54 82 61 48 45 109 131 136 137 132 133 140 143 139 140 140 139 139 140 138 137 139 141 141 142 144 145 146 146 153 157 158 162 165 167 168 168 170
73 79 57 7 268 265 255 272 31 58 72 77 88 84 58 35 98 122 132 135 134 135 136 147 143 143 145 146 144 144 145 143 143 145 146 148 149 148 147 149 155 162 168 174 178 181 179 184 186
60 76 82 265 262 266 316 27 69 72 89 95 98 104 88 91 107 127 134 136 137 136 133 144 147 149 147 148 149 149 150 149 148 149 151 155 155 154 154 156 160 166 177 187 191 186 193 201 203
120 111 180 234 271 286 239 58 92 95 83 94 111 104 120 125 131 132 128 128 128 132 136 146 154 156 153 152 152 155 154 150 150 153 157 159 160 163 166 167 167 175 187 192 196 198 205 212 211
156 109 303 271 238 254 242 128 100 96 100 92 92 116 145 168 136 115 113 112 115 126 142 149 147 147 152 157 159 160 157 156 155 157 162 167 172 175 175 177 179 181 191 198 199 208 216 221 220
128 85 254 238 206 226 248 90 66 84 84 65 65 102 138 138 123 109 101 97 109 119 129 140 141 139 148 158 165 165 165 165 163 166 168 166 172 181 183 186 191 196 202 208 212 220 230 233 230
120 162 233 225 191 189 159 89 102 83 71 59 64 76 104 115 118 119 122 128 137 143 151 149 143 137 153 170 155 165 169 170 176 174 174 172 173 190 194 200 204 209 211 217 225 233 237 241 240
171 204 236 251 216 178 126 74 71 113 97 139 139 131 114 114 122 128 131 142 150 152 145 142 146 144 163 168 160 166 165 174 194 192 184 179 175 189 198 190 220 223 222 226 237 243 238 231 233
229 246 220 221 221 178 150 124 92 103 161 157 149 142 124 121 134 141 145 151 150 142 147 142 137 132 145 161 166 169 176 180 194 203 192 171 164 179 185 189 206 211 224 229 235 233 230 234 237
263 258 230 205 180 157 112 117 117 123 137 133 137 135 133 140 139 142 142 145 141 142 147 155 144 143 152 156 180 174 180 182 189 193 197 172 167 177 177 185 183 199 207 216 226 230 231 226 240
252 295 309 267 208 176 126 132 110 158 143 137 141 143 142 143 139 125 131 135 137 139 145 152 149 150 142 153 169 180 180 175 173 183 189 169 168 162 156 163 172 193 197 206 213 224 222 232 237
346 352 334 288 229 188 118 68 174 174 147 138 151 146 138 137 134 136 151 151 148 145 143 148 152 143 144 159 165 153 162 149 160 180 172 159 168 163 161 176 193 215 206 206 214 244 237 247 255
4 11 314 283 209 194 117 201 223 179 147 152 160 147 138 133 137 142 141 137 140 138 137 146 129 135 144 151 149 146 146 148 174 167 153 161 167 162 160 181 204 225 206 190 195 228 255 265 261
356 274 261 282 263 140 129 203 211 185 150 157 162 153 146 135 136 142 145 141 142 146 142 141 143 158 164 161 149 139 131 147 179 169 165 184 179 156 187 207 217 207 203 214 228 227 209 245 265
240 249 262 259 281 116 147 200 196 184 159 160 157 153 145 145 159 155 147 142 140 145 151 154 161 170 155 129 104 88 69 59 114 182 202 191 176 174 201 226 226 197 188 241 235 236 237 230 241
223 240 271 271 239 162 192 200 205 194 173 157 158 160 154 158 163 147 141 138 129 133 147 162 164 178 154 141 146 151 184 210 292 269 241 208 183 182 203 217 219 209 205 225 220 208 242 260 239
243 264 278 292 282 162 190 231 206 198 188 174 171 164 159 146 139 141 139 132 136 155 163 164 169 175 175 176 177 174 170 188 202 262 271 220 204 203 209 199 209 215 199 220 228 180 198 260 199
259 222 221 222 314 7 99 337 270 237 159 153 150 148 148 153 158 158 143 139 143 150 168 162 173 171 174 169 135 97 67 32 46 264 257 232 204 211 201 194 199 209 194 204 217 191 185 226 263
250 227 199 191 136 269 165 240 276 210 172 166 159 151 152 151 148 157 151 159 172 170 154 150 157 158 161 153 150 158 157 195 222 215 223 235 217 220 215 199 197 203 198 203 219 208 196 183 222
230 220 204 213 172 319 325 133 281 167 191 193 174 163 163 155 155 164 160 165 167 157 154 153 145 133 147 167 178 165 177 218 238 248 239 241 238 229 220 207 197 203 207 209 214 221 211 199 198
213 51 26 44 70 9 264 159 251 232 212 190 179 169 162 151 145 145 135 123 122 133 155 153 140 129 121 139 158 163 175 206 196 261 246 254 260 252 228 199 198 212 220 221 220 216 212 215 208
74 82 30 6 14 263 288 135 238 237 207 173 165 161 158 149 145 142 133 131 135 141 165 157 144 148 166 155 187 186 181 195 198 223 225 234 320 286 257 230 209 216 228 230 221 217 224 215 210
189 138 150 191 222 278 341 213 266 244 150 140 144 146 144 142 151 151 154 165 168 157 153 143 151 170 196 147 168 162 181 198 214 224 201 190 205 225 231 227 215 220 220 230 213 221 230 212 213
149 180 168 141 151 2 294 290 302 170 116 121 129 132 143 156 161 160 161 164 161 158 156 148 148 155 166 147 130 151 231 177 177 242 176 192 209 200 219 195 198 231 228 229 208 229 242 227 222
159 156 94 111 148 222 243 219 218 197 175 151 143 148 163 160 156 159 161 166 164 162 148 127 131 155 170 175 184 148 181 184 143 91 58 39 45 67 54 41 53 292 248 236 215 243 245 217 240
126 107 115 130 155 158 217 262 227 189 172 156 157 160 160 158 157 161 167 173 164 143 134 129 123 112 139 181 188 120 3 204 102 91 69 74 67 69 79 113 61 295 274 246 225 251 247 234 249
158 165 150 154 208 161 161 258 253 166 161 150 153 160 155 153 153 157 167 162 143 143 149 151 151 143 177 177 149 161 178 90 82 74 56 88 90 64 34 4 302 295 298 269 229 245 261 244 244